Theta_e
319 319 321 323 323 322 321 320 322 323 324 325 324 324 323 325 328 328 328 338 345 347 348 349 349 347 347 346 345 343 341 340 341 342 343 345 344 341 339 337 336 334 333
319 320 321 321 318 318 319 320 321 321 321 322 323 323 322 325 327 328 329 332 343 346 347 347 347 348 348 346 344 341 340 340 340 341 344 343 341 338 336 335 334 333 333
320 320 318 317 318 318 318 319 319 320 320 321 321 322 322 324 326 328 330 332 335 344 345 347 348 347 347 345 343 342 340 338 340 342 342 341 339 337 334 334 334 333 332
321 319 317 317 319 318 317 317 317 317 317 318 318 319 322 323 326 328 330 332 332 336 344 346 346 346 345 345 344 340 337 338 340 341 341 339 338 337 335 334 333 332 331
323 319 317 318 319 317 316 316 315 317 316 317 318 319 321 321 325 330 330 331 332 334 336 342 343 344 345 344 341 338 339 339 341 341 340 338 336 335 334 332 332 331 330
323 318 317 318 319 316 315 314 314 316 316 316 321 320 319 321 324 326 329 333 334 335 335 337 339 340 343 340 339 339 341 341 340 339 338 337 337 335 333 332 331 330 329
322 320 318 319 318 316 315 315 315 315 315 317 315 315 320 324 326 328 331 331 333 334 335 336 337 336 335 337 338 340 342 343 340 338 337 336 336 334 333 332 331 330 329
323 323 320 319 317 315 314 315 315 314 315 316 313 313 310 315 324 327 330 330 332 334 334 334 331 332 333 335 336 339 340 341 340 337 336 335 335 334 333 332 331 330 330
324 324 322 319 317 316 314 314 315 316 314 317 317 315 312 308 319 326 328 330 331 330 332 332 331 332 333 334 335 336 338 339 337 336 335 335 335 333 332 331 330 330 329
323 323 321 319 317 316 314 315 317 316 316 315 317 321 318 318 315 316 325 327 330 328 329 330 330 331 332 333 336 336 336 337 335 335 334 334 334 333 332 330 330 329 328
322 322 320 319 317 316 315 317 317 317 317 316 318 320 321 319 321 321 317 321 326 328 329 329 330 331 332 333 333 334 334 334 334 334 334 334 333 332 331 330 329 328 328
320 320 321 318 317 316 318 317 317 318 318 318 321 322 321 319 319 320 320 320 321 324 328 329 329 330 331 332 334 333 330 330 328 329 331 332 333 332 330 330 329 328 327
315 316 318 317 317 318 318 318 318 318 317 319 321 321 322 321 324 323 323 320 319 323 324 328 329 330 331 331 333 333 331 327 325 325 326 328 330 331 331 330 330 328 327
315 316 319 319 320 321 320 319 319 319 319 319 321 321 323 324 325 326 322 321 317 319 322 323 328 329 330 331 332 332 328 325 324 322 322 323 326 327 328 328 328 328 328
318 318 319 319 321 320 320 320 320 323 324 323 322 325 326 325 325 326 325 324 319 315 316 322 323 328 329 330 331 328 326 325 325 321 320 320 322 323 324 324 324 324 324
318 318 319 319 320 320 321 321 322 325 326 326 323 325 325 324 324 325 324 324 322 320 316 322 324 327 329 329 331 327 325 324 322 321 321 319 319 319 320 320 320 321 322
319 319 319 320 319 320 320 320 323 325 326 325 326 324 324 324 323 324 324 324 322 322 318 322 326 326 326 327 326 324 325 324 323 320 320 319 317 316 317 317 317 317 318
319 321 321 321 321 320 320 322 323 324 325 324 325 325 324 324 323 324 324 322 322 323 322 320 324 325 324 324 323 322 326 327 323 322 318 317 315 314 313 312 312 313 313
320 321 322 321 321 321 321 320 322 323 324 325 325 325 324 324 323 324 323 323 324 324 324 322 322 323 324 324 323 323 322 321 320 322 317 316 315 314 313 312 311 310 309
321 321 321 323 322 322 322 321 321 322 323 324 325 326 325 324 324 323 323 323 324 323 323 322 322 318 319 320 321 318 316 314 314 316 316 314 314 314 312 311 312 313 309
321 322 323 324 323 323 323 320 320 320 322 323 325 326 325 323 322 322 324 323 323 322 322 319 317 316 315 314 315 313 313 311 312 313 311 310 309 309 308 309 312 312 308
321 322 322 322 321 324 305 312 321 324 324 323 324 324 323 320 318 314 316 316 321 322 319 317 314 314 313 313 310 309 310 309 308 311 310 310 308 309 308 307 307 305 303
316 318 319 319 320 317 304 306 313 325 324 323 324 324 325 324 322 323 313 313 314 311 314 317 314 313 312 313 311 309 309 309 310 312 311 310 310 308 309 306 303 303 302
314 314 315 316 319 318 304 305 311 325 323 323 324 325 324 323 323 322 321 320 318 318 315 318 316 315 314 315 314 314 313 311 312 308 310 309 303 304 303 302 303 302 301
311 312 313 315 317 316 302 302 316 323 322 321 323 323 325 323 307 307 318 314 309 308 302 302 304 298 300 306 311 317 313 312 306 304 304 305 301 301 301 302 303 302 301
311 313 312 313 310 314 300 302 315 320 317 317 318 317 309 317 300 300 314 309 306 304 303 302 300 299 300 301 304 311 312 304 299 301 305 302 301 300 298 300 299 299 299
Wind_Speed
4 3 4 3 3 3 2 3 3 3 4 4 5 4 5 5 5 3 3 14 14 15 18 20 25 27 26 26 25 23 21 19 18 20 20 18 17 17 15 16 16 15 15
4 4 4 3 4 3 3 3 3 3 3 3 4 5 5 5 5 5 4 5 13 13 14 19 23 26 27 28 27 26 21 20 20 19 17 17 18 17 16 16 17 16 15
5 5 4 4 4 3 4 3 3 2 2 2 4 4 4 6 5 5 5 4 5 12 15 20 24 26 27 28 28 25 23 19 18 19 20 18 18 16 17 17 18 17 16
5 5 3 4 4 3 3 3 3 3 3 3 3 4 4 4 6 5 4 3 3 3 13 20 23 24 25 27 31 29 24 20 20 22 20 19 19 17 18 18 18 17 17
5 5 4 4 4 3 4 3 2 3 3 3 3 3 4 4 4 2 4 3 4 4 5 20 23 22 23 27 29 30 24 24 23 22 20 19 21 18 18 18 18 17 16
5 5 4 5 4 3 3 2 3 2 2 3 2 3 2 2 2 3 4 3 3 3 5 7 7 14 20 29 30 26 24 27 25 21 18 17 18 19 18 18 17 16 15
4 5 4 4 4 4 4 4 3 4 3 2 2 2 3 3 3 3 4 3 4 4 6 8 5 9 14 28 25 24 26 24 23 21 17 18 17 18 18 17 16 15 14
6 5 5 4 5 3 4 5 4 3 2 4 3 3 2 3 3 1 2 4 5 4 8 10 11 12 9 7 14 23 25 25 22 18 15 16 17 17 18 18 17 15 13
4 5 5 5 5 4 4 4 5 5 4 1 3 4 3 2 2 1 3 4 6 5 7 9 14 12 7 11 12 17 23 24 23 21 18 16 16 17 17 16 15 14 12
2 3 4 5 5 3 5 5 4 3 4 4 1 1 2 4 3 3 2 3 7 7 9 7 10 10 8 9 15 18 21 22 20 19 17 17 17 17 16 15 14 12 11
0 2 4 4 4 2 4 5 5 4 3 4 4 3 2 1 1 4 3 4 5 7 7 6 9 9 10 11 9 15 18 18 17 16 17 17 16 16 15 14 12 10 9
2 1 3 3 2 2 4 4 4 5 4 2 2 4 2 3 3 4 3 5 6 5 7 7 7 7 7 9 13 14 12 15 13 13 11 12 14 14 14 12 10 9 6
1 2 2 3 2 1 3 4 4 4 4 2 3 3 2 3 5 6 3 5 3 4 4 5 6 7 6 6 8 12 14 13 12 11 9 9 9 10 10 10 10 8 7
3 2 3 3 3 4 3 4 3 3 3 3 5 4 3 3 8 7 4 6 5 3 3 4 6 7 6 5 8 11 8 13 11 8 7 7 8 8 10 9 8 7 7
2 3 3 3 3 4 3 5 4 5 5 5 5 6 5 4 5 8 6 5 4 4 4 4 3 7 7 5 8 5 5 10 10 10 8 7 7 8 7 7 6 6 6
2 3 3 3 3 4 5 5 6 6 6 6 5 9 7 5 7 6 6 7 4 5 4 3 4 7 8 5 7 5 4 7 7 7 6 7 6 6 7 6 6 7 7
3 3 3 5 5 5 5 7 6 6 7 8 8 8 9 8 7 7 7 7 7 6 8 4 3 7 8 8 5 4 2 4 2 3 5 5 6 7 7 7 7 7 8
3 4 5 5 5 5 5 8 8 6 7 8 8 10 10 8 9 8 7 8 7 5 8 9 4 2 8 6 5 4 2 2 2 4 5 6 8 7 7 9 9 9 10
4 4 5 6 6 6 6 6 9 9 6 6 7 8 10 10 9 8 8 8 7 7 7 6 4 3 3 4 3 3 3 1 2 5 7 7 7 8 11 11 9 9 7
5 5 4 6 6 6 6 6 8 10 5 5 6 8 8 9 11 11 8 8 8 8 8 7 5 3 3 3 3 3 1 1 2 1 3 5 5 7 6 6 6 8 8
3 5 6 5 5 5 4 6 6 7 7 6 6 6 6 8 11 8 7 8 10 7 6 6 3 2 2 3 3 2 2 1 2 1 2 2 2 3 2 4 5 5 7
4 5 5 6 6 3 9 10 8 6 6 6 7 8 9 12 11 13 12 10 8 8 6 4 3 3 3 4 3 3 3 2 0 1 2 2 2 3 3 3 6 5 3
4 5 6 6 6 6 9 10 11 5 6 5 7 8 8 7 9 8 7 8 6 1 3 4 5 4 4 5 6 4 3 2 3 1 2 1 3 4 3 4 8 12 13
5 5 5 6 7 6 11 11 10 5 6 6 7 7 9 8 6 6 5 4 1 3 5 4 5 4 3 7 6 5 6 4 3 2 1 3 3 1 1 3 13 17 15
3 4 4 6 8 6 7 10 7 5 5 6 5 6 8 7 8 9 5 3 1 1 6 5 8 11 6 9 8 6 4 4 2 1 3 3 2 3 4 4 5 10 12
5 5 6 5 7 6 8 11 8 4 5 4 3 5 5 6 10 10 6 6 6 3 5 5 4 7 6 7 5 2 5 4 4 3 4 5 4 4 4 2 3 5 6
Wind_Direction
228 225 238 243 270 268 239 259 248 200 199 194 212 200 231 237 245 238 237 252 253 235 236 205 186 176 166 162 159 157 153 151 183 168 149 132 128 130 135 128 125 120 123
222 213 236 244 251 247 268 239 225 201 200 186 218 221 240 244 246 237 231 247 255 230 221 206 192 183 167 159 157 154 158 164 190 156 136 129 134 137 134 134 127 126 126
215 208 222 244 240 230 243 237 234 200 204 203 234 236 248 250 250 243 228 225 252 228 211 194 188 181 169 161 160 155 156 173 171 150 138 142 133 138 144 139 131 129 131
199 202 217 239 239 224 219 211 195 201 207 201 228 236 248 253 255 228 222 216 208 183 200 192 181 181 174 176 161 149 159 179 173 152 141 142 137 149 142 140 133 139 135
203 197 211 230 223 212 215 198 189 161 184 212 227 239 251 248 254 213 199 196 211 180 180 199 189 184 179 163 148 152 175 173 163 138 144 145 140 148 145 138 143 141 141
207 199 218 229 203 197 215 183 168 187 157 191 225 236 263 307 276 211 171 149 159 154 162 145 183 183 166 143 149 169 172 175 142 136 142 146 147 149 146 142 148 149 147
220 206 219 223 182 199 198 188 154 178 200 141 115 43 32 17 273 168 165 164 127 121 131 115 126 125 143 149 165 173 168 143 131 137 147 147 156 149 143 151 158 153 148
227 211 202 206 186 177 183 175 172 139 174 182 140 99 74 5 12 112 117 134 121 108 119 126 119 119 141 155 156 161 156 135 127 141 161 150 151 154 154 163 161 155 157
237 193 196 192 181 172 182 181 175 163 154 150 220 134 133 186 92 112 167 117 133 108 117 133 135 137 141 144 159 150 150 129 144 162 161 154 155 158 169 169 161 164 164
160 178 192 178 170 171 186 189 183 179 142 148 150 170 171 139 151 151 114 148 104 107 112 116 119 125 113 124 137 143 138 141 156 161 158 162 165 171 172 168 168 170 167
130 156 169 145 154 166 198 185 174 183 168 151 151 148 119 128 113 119 118 145 107 114 113 112 126 127 125 125 132 143 136 151 159 159 164 168 173 175 172 174 172 173 177
30 106 128 139 127 201 162 149 155 162 178 172 149 133 163 162 145 113 118 102 115 109 112 112 121 129 121 123 134 140 144 141 147 154 161 169 176 180 178 176 176 179 182
101 151 120 118 73 105 127 134 155 157 176 186 140 122 147 178 123 78 124 109 96 111 109 103 125 119 110 118 131 143 149 141 149 155 165 174 178 175 174 180 187 185 198
150 176 118 102 90 80 108 140 113 113 107 101 99 100 116 125 121 117 123 132 109 85 79 123 113 124 125 120 135 136 147 148 148 160 172 178 173 172 184 187 187 203 215
156 158 138 108 79 89 104 109 101 102 109 99 99 99 110 89 113 143 138 140 128 129 123 110 108 112 124 111 127 123 129 146 165 161 170 181 186 194 191 198 206 222 233
141 142 137 120 97 100 103 89 98 115 112 100 99 105 105 94 97 111 118 111 82 115 114 68 72 125 124 120 129 118 121 149 140 159 172 192 208 211 217 217 232 237 238
155 148 140 125 128 119 99 91 89 101 103 104 98 100 101 109 105 104 108 113 113 117 116 94 75 123 129 132 115 102 137 96 112 204 199 207 226 228 233 235 244 252 250
143 143 129 113 108 103 104 108 104 114 93 100 110 114 113 111 102 110 117 115 102 101 119 121 114 120 111 108 109 120 106 146 205 228 229 226 233 241 256 252 244 250 254
133 129 124 121 124 120 111 95 114 115 114 100 115 113 120 116 111 110 110 117 111 107 111 119 110 78 83 118 116 123 163 162 219 223 226 225 233 242 248 253 263 275 304
132 130 122 117 122 113 107 110 110 119 105 78 91 109 117 120 123 121 118 112 119 115 112 108 112 92 96 81 87 121 134 34 298 264 236 248 249 252 276 287 284 281 274
126 127 121 98 96 108 116 109 105 109 116 99 94 91 105 106 111 118 129 125 127 125 125 116 98 102 105 108 165 162 147 120 272 344 355 305 289 353 343 329 310 313 319
123 135 130 123 124 108 115 117 111 110 112 113 111 107 111 110 101 98 93 97 127 138 135 131 128 135 162 147 141 123 134 135 80 323 106 6 15 31 26 54 18 356 310
124 128 118 122 127 113 133 121 106 97 111 110 119 120 117 115 115 118 124 119 117 133 84 150 152 175 164 173 143 144 139 131 175 289 147 99 23 59 30 41 64 51 35
112 125 130 115 119 145 135 128 118 107 106 100 101 106 120 132 135 136 133 116 224 242 214 189 182 172 157 170 166 158 166 141 88 38 41 108 16 113 101 339 39 38 21
119 119 126 129 133 154 143 136 131 113 113 111 126 115 148 155 153 133 130 166 210 79 58 68 101 84 111 178 156 122 149 110 107 34 349 126 356 31 35 8 27 32 17
136 127 116 129 135 143 157 160 136 122 120 115 97 121 176 158 157 167 165 156 137 142 101 107 102 86 96 78 97 95 146 143 124 84 333 75 26 34 16 336 25 32 5